Home   Weather   Arth   Past weeks

Flag for Switzerland Past Weather in Arth, Schwyz, Switzerland — Yesterday and Last 2 Weeks

Now
47 °F

Overcast.


Feels Like: 47 °F
Forecast: 29 / 36 °F
Wind: 1 mph from Southeast

Location: Altdorf

Current Time: Apr 26, 2017 at 12:21:36 am

Latest Report: Apr 25, 2017 at 11:00 pm


Visibility: 9 mi

Pressure: 29.72 "Hg

Humidity: 92%

Dew Point: 45 °F

Location of ArthLocation

Past Weather in Arth — Graph

°F

Arth Temperature Yesterday

Maximum temperature yesterday: 61 °F (at 11:00 am)
Minimum temperature yesterday: 48 °F (at 10:00 pm)
Average temperature yesterday: 55 °F

High & Low Weather Summary for the Past Weeks

 TemperatureHumidityPressure
High66 °F (Apr 12, 5:00 pm)97% (Apr 15, 10:00 pm)30.57 "Hg (Apr 15, 10:00 pm)
Low27 °F (Apr 21, 7:00 am)29% (Apr 21, 3:00 pm)29.72 "Hg (Apr 25, 2:00 pm)
Average48 °F71%30.16 "Hg
* Reported Apr 10 10:00 pm — Apr 25 10:00 pm, Arth, Weather by CustomWeather, © 2017

Note: Actual official high and low records may vary slightly from our data, if they occured in-between our weather recording intervals... More about our weather records

Advertising

Arth Weather History for the Previous 24 Hours

Scroll right to see more
 ConditionsComfort  
Time TempWeatherWind HumidityBarometerVisibility
10:00 pm
Tue, Apr 25
48 °FCool.1 mph91%29.76 "HgN/A
9:00 pm48 °FCool.6 mph89%29.76 "HgN/A
8:00 pm49 °FRain. Overcast.5 mph86%29.75 "Hg9 mi
7:00 pm49 °FCool.8 mph87%29.75 "HgN/A
6:00 pm51 °FCool.10 mph79%29.76 "HgN/A
5:00 pm52 °FOvercast.14 mph73%29.76 "Hg12 mi
4:00 pm53 °FCool.15 mph71%29.76 "HgN/A
3:00 pm54 °FCool.22 mph69%29.75 "HgN/A
2:00 pm60 °FOvercast.18 mph58%29.72 "Hg16 mi
1:00 pm61 °FRefreshingly cool.8 mph57%29.73 "HgN/A
12:00 pm61 °FRefreshingly cool.14 mph55%29.74 "HgN/A
11:00 am61 °FOvercast.15 mph55%29.74 "Hg19 mi
10:00 am58 °FCool.6 mph62%29.75 "HgN/A
9:00 am55 °FCool.10 mph63%29.77 "HgN/A
8:00 am53 °FPartly sunny.6 mph67%29.77 "Hg19 mi
7:00 am53 °FCool.5 mph67%29.77 "HgN/A
6:00 am50 °FCool.2 mph70%29.78 "HgN/A
5:00 am52 °FPassing clouds.3 mph67%29.79 "Hg19 mi
4:00 am55 °FCool.3 mph55%29.79 "HgN/A
3:00 am60 °FRefreshingly cool.13 mph43%29.78 "HgN/A
2:00 am59 °FRefreshingly cool.16 mph44%29.79 "HgN/A
1:00 am58 °FRefreshingly cool.17 mph48%29.81 "HgN/A
12:00 am59 °FRefreshingly cool.12 mph45%29.83 "HgN/A
Weather by CustomWeather, © 2017

See weather overviewHow to use our weather pages